Wind_Speed
36 32 35 40 45 48 47 53 59 61 65 66 62 58 60 64 67 75 75 92 91 92 92 91 87 84 81 86 97 95 93 85 85 93 93 94 99 98 90 83 73 72 67 64 61
36 35 38 44 50 50 51 55 64 67 68 67 62 63 65 71 71 75 79 84 99 97 94 99 97 92 87 86 93 99 92 89 90 93 97 102 102 104 93 87 78 75 71 63 66
37 37 42 47 53 52 55 61 70 76 72 68 72 69 69 66 64 66 75 85 97 103 104 104 103 100 95 91 91 95 94 93 95 98 102 105 106 107 96 92 84 76 74 69 64
39 41 46 50 58 57 61 68 76 80 75 76 84 71 65 59 50 57 67 79 89 107 107 105 102 103 102 96 93 91 92 99 99 104 105 105 108 107 98 94 89 80 75 70 64
42 45 50 55 64 63 68 75 83 84 80 81 82 75 61 52 48 47 58 64 84 99 114 114 108 102 107 104 99 94 89 100 104 106 109 112 110 110 102 96 92 88 79 74 66
45 49 54 60 68 69 73 80 86 89 88 88 86 75 59 51 48 44 48 62 68 87 107 117 114 109 106 109 105 98 92 98 108 108 111 113 109 108 105 100 94 91 85 79 72
50 54 58 64 71 72 78 84 90 94 96 96 89 75 63 50 45 40 40 50 61 74 98 115 120 114 109 112 109 101 100 99 107 111 114 115 113 101 105 104 98 93 91 86 74
54 57 62 67 73 75 82 87 95 101 99 99 88 76 65 53 45 37 32 40 55 67 85 102 121 115 111 113 111 105 99 101 104 113 114 114 108 109 109 108 103 98 96 90 82
58 61 66 71 76 80 86 93 97 104 103 97 99 82 65 53 48 37 32 32 50 60 76 92 120 120 112 112 114 110 99 97 99 108 113 112 106 111 113 107 107 104 99 96 91
60 63 68 74 79 83 89 97 102 111 112 105 100 90 67 55 49 36 22 27 39 54 68 82 102 124 116 113 107 106 100 98 96 100 110 110 107 112 116 111 109 108 104 98 95
61 66 71 77 81 86 94 99 108 116 117 107 100 88 70 55 48 38 27 18 30 45 53 71 87 110 115 109 107 110 107 103 100 98 102 105 106 106 116 117 112 108 106 103 98
63 68 75 79 83 89 94 102 108 116 118 110 102 87 73 60 50 41 30 20 19 29 41 59 76 95 114 110 106 103 106 102 98 100 99 103 104 102 113 114 114 111 106 106 102
66 73 77 81 87 92 99 105 111 117 118 110 98 86 72 59 50 40 32 21 11 17 29 48 72 88 103 111 104 100 101 106 100 98 98 104 103 95 106 111 113 114 109 107 103
69 74 79 83 89 96 102 109 112 117 114 111 96 86 71 58 47 39 38 22 8 12 26 47 66 82 92 107 102 98 100 107 104 101 99 106 103 97 100 107 110 113 111 108 103
72 76 80 84 91 97 104 109 113 117 118 112 95 84 70 58 45 38 35 23 7 12 26 41 61 76 84 99 102 98 100 102 109 107 101 103 104 101 101 106 107 111 110 109 106
74 77 81 86 91 96 103 108 114 118 120 114 96 82 69 59 45 36 32 24 7 10 25 37 51 68 82 95 101 103 99 100 107 106 104 99 100 104 97 90 92 102 110 111 108
75 79 81 86 91 97 104 109 114 120 120 111 92 78 67 57 46 36 29 22 11 6 23 35 49 67 78 85 96 100 99 99 103 103 98 98 96 96 97 95 91 92 107 111 109
77 80 83 87 93 99 104 110 114 120 122 105 85 75 67 54 44 35 27 19 11 3 17 31 43 57 72 80 88 96 99 99 94 92 93 97 92 89 94 95 94 94 98 113 110
78 81 84 87 94 100 106 110 113 117 118 102 82 73 66 52 41 32 27 19 14 1 11 26 36 47 64 77 87 93 98 100 97 95 95 93 87 90 91 91 95 95 95 100 113
79 83 84 88 93 99 105 111 114 116 115 103 82 70 63 51 40 27 25 21 10 6 8 21 33 42 55 68 77 87 95 97 96 95 95 93 91 90 91 92 93 95 94 95 101
80 84 87 89 94 100 104 110 115 118 115 103 81 68 59 46 39 25 21 18 10 5 3 14 26 37 45 56 68 74 80 86 91 93 93 93 92 93 93 93 93 93 93 92 92
82 85 85 91 96 100 106 109 114 121 117 97 79 66 55 43 36 23 17 13 7 1 2 9 20 33 45 54 61 68 73 78 84 87 88 89 89 90 90 90 89 86 86 89 91
81 86 89 91 95 100 106 111 115 117 110 102 76 64 53 40 32 21 12 9 5 6 8 8 14 22 32 41 48 57 61 67 74 78 81 80 80 81 81 83 81 78 80 82 89
83 85 89 93 98 103 107 111 116 122 111 101 70 60 51 38 29 20 12 6 7 7 14 13 16 20 26 37 48 52 57 60 61 61 64 66 70 69 70 71 67 67 71 75 82
86 88 91 94 100 107 111 114 118 116 113 84 64 57 45 37 25 20 12 8 6 6 16 20 20 20 24 31 35 41 47 51 52 55 53 58 56 55 52 55 57 61 69 70 72
87 89 93 97 102 108 112 117 120 120 99 73 59 52 40 33 21 20 11 9 8 5 15 22 25 26 25 26 25 28 32 41 47 47 51 47 39 35 31 32 35 40 47 52 58
86 90 94 99 103 109 112 117 121 115 92 68 56 46 37 29 18 14 11 10 10 7 12 21 24 27 26 25 27 24 26 29 34 34 33 34 33 36 31 29 27 27 31 37 43
Wind_Direction
340 341 340 338 338 336 336 334 333 329 326 319 321 305 289 276 264 250 238 232 227 226 225 225 223 223 221 220 220 222 221 216 212 216 224 224 227 224 222 223 222 225 220 217 215
343 343 341 341 338 338 337 335 336 330 328 327 326 313 298 282 274 260 245 233 227 224 222 223 222 221 220 218 219 219 219 216 214 216 222 225 225 227 221 222 221 223 224 218 215
344 343 342 342 341 338 338 335 337 333 331 338 340 320 304 293 284 261 247 239 230 223 221 221 221 220 219 218 215 216 214 216 214 216 222 226 224 228 221 221 221 222 224 224 217
345 342 342 341 342 339 338 338 338 335 337 342 346 330 314 302 282 264 253 242 233 226 216 219 219 218 218 216 215 213 213 214 215 216 222 227 223 225 224 221 220 219 220 223 220
343 341 341 342 343 340 340 340 339 338 341 345 346 340 321 309 295 273 255 245 233 226 221 217 216 214 216 215 214 209 210 212 214 215 219 226 224 222 223 221 220 222 219 218 218
341 342 342 343 344 341 341 342 340 345 346 348 348 343 331 318 303 285 264 249 234 227 221 218 215 212 215 215 213 210 207 211 211 215 219 224 224 224 223 224 220 221 221 218 214
341 342 342 343 343 342 342 343 344 347 350 349 348 345 339 325 311 294 269 249 238 224 220 217 215 213 210 213 213 209 207 208 212 215 219 221 223 222 224 225 223 219 223 223 215
342 342 343 343 342 343 343 345 349 351 352 352 349 348 344 332 323 308 286 245 238 226 219 216 213 210 210 212 210 208 208 206 211 213 218 221 222 221 224 222 223 221 220 223 216
342 343 343 343 343 344 344 347 350 353 353 354 355 349 346 335 332 321 296 250 236 228 219 214 210 210 210 209 210 207 207 206 210 213 218 219 221 221 224 222 222 221 219 220 220
342 343 343 343 345 345 346 348 351 354 355 354 352 351 346 342 338 328 299 267 234 230 219 213 209 209 209 209 208 206 202 205 208 214 217 218 220 222 223 221 222 220 221 220 221
343 342 343 344 346 347 348 349 353 355 354 352 352 353 349 346 341 340 335 294 244 232 221 213 207 207 207 208 206 206 201 204 206 213 216 217 219 225 223 222 221 220 221 220 221
343 343 343 346 346 348 347 351 353 355 353 352 352 353 352 350 346 346 343 320 261 234 220 211 205 203 206 205 204 204 204 201 205 210 214 218 217 223 224 224 219 221 220 220 220
342 342 345 345 346 347 348 352 354 354 352 353 351 353 353 352 348 346 354 333 272 223 211 206 203 201 204 203 202 202 203 203 207 210 213 218 217 222 226 226 222 220 220 221 220
342 343 345 345 347 347 349 353 353 353 353 353 352 352 354 354 351 352 355 347 298 200 194 201 202 199 201 202 202 201 201 205 206 208 212 216 217 219 226 225 225 220 220 222 222
341 344 345 345 347 348 349 352 352 353 353 354 352 352 354 354 354 354 360 354 310 202 190 195 200 200 197 201 201 201 201 205 206 209 209 215 217 220 226 225 225 225 221 222 222
341 344 343 344 346 347 349 351 351 352 351 352 352 351 352 354 355 356 2 356 329 203 187 188 198 198 198 200 201 203 202 205 207 209 210 213 217 222 225 227 228 228 223 222 222
341 343 342 343 345 347 349 351 351 352 352 351 351 351 350 354 355 357 3 5 349 188 184 188 194 196 197 201 202 204 205 206 209 209 211 214 217 222 224 227 227 230 228 224 224
341 342 342 342 344 346 348 349 350 351 351 351 351 351 348 352 355 355 5 2 14 186 191 186 193 198 197 198 202 205 207 209 211 211 213 217 218 223 225 226 228 230 230 226 224
339 341 341 342 344 346 347 347 349 351 352 351 349 350 348 350 353 352 359 8 24 81 187 188 189 196 199 200 201 204 207 210 212 212 215 218 219 223 227 228 228 229 230 229 226
337 339 340 341 343 344 347 345 349 350 350 351 347 348 348 344 353 357 5 353 19 30 175 192 189 196 200 202 205 205 208 211 213 215 219 219 220 225 228 227 228 228 229 229 229
336 337 338 339 342 343 344 345 347 347 349 347 346 345 347 343 346 0 1 359 343 25 167 189 191 190 199 205 207 209 211 213 215 216 218 220 220 225 229 230 230 230 230 231 229
334 335 337 339 341 342 343 344 345 346 347 348 346 343 344 343 339 350 355 9 324 125 213 191 193 191 194 200 209 211 212 214 215 217 219 220 222 224 229 231 232 235 235 233 232
332 334 336 338 340 340 342 343 344 345 346 348 346 342 340 342 335 335 336 20 349 210 181 199 201 200 202 204 206 210 215 218 218 219 219 221 224 226 230 234 235 236 238 237 234
332 332 334 337 338 340 341 342 342 344 342 343 342 341 337 339 331 322 322 359 9 207 188 171 201 194 193 197 198 210 217 217 220 221 222 221 227 229 233 235 234 234 237 237 236
330 332 334 336 338 339 340 341 341 344 341 343 341 339 336 332 327 310 308 325 7 229 191 172 182 190 198 197 201 204 204 210 216 219 218 223 225 229 233 238 232 227 230 233 234
330 330 333 335 337 338 339 339 342 343 344 341 340 337 335 325 321 304 292 306 343 234 203 184 180 178 188 189 186 195 203 201 202 205 209 213 217 216 219 230 224 222 229 231 234
327 329 332 333 336 337 338 339 341 344 343 340 337 334 330 322 309 282 260 281 306 265 206 194 181 181 182 188 176 183 189 195 196 195 192 180 174 170 176 181 184 191 209 219 221
Height
10828 10823 10818 10813 10806 10798 10790 10782 10773 10761 10749 10735 10717 10699 10685 10676 10668 10664 10666 10672 10677 10690 10699 10707 10714 10716 10730 10743 10756 10769 10792 10819 10829 10824 10813 10818 10822 10832 10849 10867 10883 10892 10899 10910 10921
10821 10816 10811 10804 10797 10788 10780 10772 10759 10746 10732 10712 10688 10667 10649 10637 10634 10633 10638 10639 10644 10659 10668 10675 10685 10697 10711 10723 10735 10753 10782 10800 10805 10803 10792 10791 10804 10811 10846 10862 10876 10882 10890 10905 10910
10815 10810 10804 10797 10787 10777 10768 10757 10743 10727 10711 10688 10662 10639 10617 10608 10600 10599 10600 10605 10613 10626 10636 10642 10658 10677 10690 10701 10719 10738 10767 10776 10784 10782 10768 10769 10791 10799 10832 10850 10865 10876 10880 10895 10905
10808 10802 10795 10787 10777 10765 10755 10741 10726 10709 10687 10666 10642 10616 10590 10577 10572 10565 10563 10571 10579 10591 10604 10615 10632 10653 10668 10683 10699 10717 10741 10754 10763 10760 10756 10754 10775 10793 10820 10839 10857 10866 10875 10889 10898
10801 10793 10785 10775 10764 10752 10739 10725 10709 10689 10665 10643 10620 10595 10570 10553 10544 10540 10535 10538 10545 10557 10575 10586 10603 10625 10644 10659 10675 10697 10719 10732 10741 10741 10740 10734 10757 10781 10807 10826 10843 10855 10867 10877 10888
10793 10784 10774 10764 10752 10739 10726 10710 10692 10670 10646 10621 10597 10576 10552 10534 10521 10514 10509 10507 10514 10528 10546 10565 10581 10599 10615 10638 10654 10679 10693 10706 10719 10725 10719 10722 10750 10770 10797 10812 10832 10847 10857 10867 10875
10784 10774 10764 10753 10740 10727 10711 10696 10675 10652 10625 10601 10579 10556 10534 10516 10502 10491 10487 10486 10490 10499 10519 10539 10553 10572 10590 10613 10635 10661 10672 10688 10708 10711 10704 10714 10731 10775 10781 10798 10817 10838 10844 10850 10873
10775 10765 10755 10743 10728 10715 10699 10682 10659 10635 10610 10586 10561 10536 10516 10498 10485 10474 10467 10467 10466 10477 10489 10511 10531 10551 10573 10590 10614 10643 10660 10675 10690 10695 10695 10701 10734 10751 10755 10778 10800 10818 10829 10843 10855
10766 10756 10745 10732 10718 10702 10685 10666 10646 10620 10597 10570 10544 10519 10502 10486 10471 10461 10450 10448 10446 10453 10464 10485 10512 10532 10550 10571 10597 10622 10652 10665 10673 10681 10680 10699 10721 10734 10737 10764 10779 10796 10814 10826 10839
10758 10747 10735 10721 10706 10690 10672 10651 10629 10603 10576 10555 10532 10510 10491 10472 10458 10447 10438 10432 10431 10433 10444 10465 10488 10513 10535 10561 10592 10615 10637 10649 10659 10667 10675 10692 10702 10708 10716 10744 10759 10778 10795 10812 10827
10750 10738 10725 10712 10695 10679 10660 10641 10614 10586 10564 10546 10522 10504 10482 10465 10449 10434 10423 10420 10417 10421 10435 10453 10474 10509 10536 10552 10570 10590 10611 10628 10643 10655 10666 10678 10686 10682 10695 10717 10743 10763 10782 10798 10813
10743 10731 10716 10703 10688 10671 10652 10630 10605 10582 10558 10535 10512 10492 10472 10454 10439 10426 10416 10412 10410 10415 10427 10443 10467 10486 10511 10534 10554 10576 10599 10615 10627 10634 10652 10657 10671 10668 10677 10694 10731 10747 10766 10781 10802
10736 10721 10709 10693 10677 10660 10640 10619 10596 10575 10555 10532 10509 10488 10470 10453 10437 10425 10414 10409 10408 10412 10422 10439 10453 10471 10495 10518 10541 10565 10588 10601 10608 10621 10640 10642 10655 10656 10661 10679 10709 10734 10750 10763 10786
10729 10716 10700 10685 10667 10648 10628 10609 10589 10570 10549 10525 10503 10484 10468 10451 10438 10424 10413 10409 10408 10410 10418 10430 10443 10459 10482 10510 10533 10553 10570 10582 10594 10606 10618 10625 10640 10645 10644 10667 10686 10717 10739 10753 10774
10721 10708 10694 10678 10663 10642 10622 10604 10584 10564 10542 10522 10499 10480 10466 10451 10439 10426 10417 10412 10409 10410 10416 10426 10439 10457 10475 10496 10517 10536 10550 10568 10578 10588 10605 10616 10631 10636 10637 10658 10681 10702 10729 10744 10756
10714 10702 10686 10671 10657 10641 10621 10602 10579 10559 10535 10517 10496 10478 10463 10450 10439 10429 10419 10414 10411 10412 10415 10424 10439 10455 10468 10483 10505 10517 10536 10555 10566 10579 10596 10609 10624 10626 10640 10666 10678 10691 10715 10729 10744
10708 10695 10682 10667 10652 10636 10617 10598 10578 10556 10534 10513 10496 10479 10463 10451 10441 10432 10423 10418 10414 10414 10416 10423 10432 10445 10460 10481 10497 10512 10530 10542 10554 10573 10599 10604 10614 10627 10642 10651 10668 10677 10692 10717 10733
10702 10689 10675 10660 10644 10627 10613 10593 10574 10555 10528 10510 10494 10479 10463 10452 10442 10434 10427 10421 10417 10416 10419 10422 10430 10444 10460 10474 10492 10505 10521 10534 10557 10583 10591 10596 10613 10626 10630 10639 10653 10664 10675 10696 10718
10695 10684 10670 10656 10639 10622 10604 10590 10570 10552 10531 10506 10490 10477 10462 10452 10442 10435 10428 10425 10420 10420 10421 10425 10431 10443 10456 10465 10475 10491 10507 10522 10543 10560 10571 10587 10611 10611 10615 10628 10640 10648 10660 10676 10696
10689 10676 10666 10651 10636 10619 10602 10582 10568 10548 10531 10512 10490 10476 10464 10450 10444 10438 10432 10427 10424 10423 10423 10426 10430 10440 10450 10462 10474 10486 10495 10513 10533 10550 10562 10579 10593 10601 10601 10609 10617 10629 10642 10658 10675
10683 10669 10655 10645 10632 10615 10600 10579 10560 10544 10528 10510 10490 10473 10462 10450 10444 10439 10435 10431 10427 10425 10426 10427 10431 10437 10449 10461 10471 10484 10498 10512 10526 10537 10549 10563 10577 10582 10588 10599 10609 10621 10637 10651 10663
10672 10663 10654 10638 10624 10609 10592 10577 10558 10538 10521 10501 10485 10471 10458 10450 10443 10438 10436 10433 10429 10426 10428 10429 10432 10434 10440 10449 10462 10473 10486 10499 10510 10523 10536 10550 10566 10574 10580 10588 10602 10619 10630 10638 10649
10670 10654 10643 10634 10620 10605 10586 10568 10550 10532 10512 10497 10482 10467 10455 10448 10442 10437 10436 10433 10430 10428 10428 10430 10433 10438 10443 10452 10463 10471 10482 10491 10500 10513 10526 10541 10554 10561 10570 10578 10593 10605 10611 10623 10630
10663 10651 10637 10624 10611 10597 10581 10565 10546 10526 10506 10491 10474 10463 10452 10444 10438 10435 10432 10431 10429 10429 10429 10430 10434 10437 10441 10443 10447 10461 10471 10482 10494 10508 10519 10531 10538 10549 10559 10567 10582 10590 10595 10603 10614
10651 10639 10627 10619 10601 10583 10569 10555 10537 10523 10496 10481 10469 10456 10449 10440 10434 10432 10429 10427 10427 10427 10429 10429 10433 10438 10441 10445 10450 10456 10461 10472 10485 10494 10510 10517 10531 10540 10551 10556 10569 10578 10577 10585 10598
10641 10629 10616 10606 10593 10577 10560 10542 10526 10501 10492 10471 10462 10450 10442 10436 10430 10428 10426 10426 10424 10426 10427 10429 10432 10436 10442 10446 10451 10458 10465 10471 10477 10489 10500 10513 10525 10536 10542 10549 10556 10565 10572 10581 10589
10632 10621 10610 10598 10586 10569 10555 10536 10517 10501 10476 10466 10455 10443 10435 10430 10426 10424 10424 10423 10424 10424 10425 10429 10432 10436 10440 10447 10451 10457 10464 10471 10479 10489 10502 10511 10518 10529 10534 10539 10548 10557 10563 10572 10579